KI5QWQ Weather Reports


time (UTC)temp
F
wind
direction
speed
knots
gust
knots
rain 1hr
in
rain 24hr
in
rain mn
in
humidity
%
barometer
mb
20240614125616 0 110 0.0 1.7 0.00 0.00 0.00 1017.8
20240614125116 0 228 0.0 1.7 0.00 0.00 0.00 1017.9
20240614124606 0 274 0.9 1.7 0.00 0.00 0.00 1017.6
20240614124104 0 235 0.0 1.7 0.00 0.00 0.00 1017.5
20240614123605 0 277 0.0 0.9 0.00 0.00 0.00 1017.4
20240614123103 0 205 0.0 0.9 0.00 0.00 0.00 1017.4
20240614122601 0 155 0.0 0.9 0.00 0.00 0.00 1017.4
20240614122100 0 142 0.0 0.0 0.00 0.00 0.00 1017.5
20240614121557 0 269 0.0 0.0 0.00 0.00 0.00 1018.0
20240614121056 0 269 0.0 1.7 0.00 0.00 0.00 1017.8
20240614120554 0 246 0.0 0.9 0.00 0.00 0.00 1017.9
20240614120054 0 269 0.0 0.9 0.00 0.00 0.00 1018.0
20240614115554 0 269 0.0 0.9 0.00 0.00 0.00 1018.0
20240614115053 0 129 0.0 0.9 0.00 0.00 0.00 1017.9
20240614114551 0 233 0.0 0.0 0.00 0.00 0.00 1018.0
20240614114051 0 111 0.0 1.7 0.00 0.00 0.00 1017.9
20240614113549 0 283 0.0 1.7 0.00 0.00 0.00 1017.9
20240614113048 0 75 0.0 0.9 0.00 0.00 0.00 1017.8
20240614112546 0 89 0.0 0.9 0.00 0.00 0.00 1017.6
20240614112046 0 242 0.0 0.9 0.00 0.00 0.00 1017.6
20240614111542 0 226 0.0 0.9 0.00 0.00 0.00 1017.5
20240614111040 0 326 0.0 0.0 0.00 0.00 0.00 1017.6
20240614110540 0 7 0.0 0.9 0.00 0.00 0.00 1017.8
20240614110038 0 315 0.0 1.7 0.00 0.00 0.00 1017.4
20240614105535 0 154 0.0 0.9 0.00 0.00 0.00 1017.2
20240614105034 0 229 0.0 0.9 0.00 0.00 0.00 1017.2
20240614104530 0 246 0.0 0.9 0.00 0.00 0.00 1017.1
20240614104030 0 164 0.0 0.9 0.00 0.00 0.00 1017.2
20240614103529 0 322 0.0 0.9 0.00 0.00 0.00 1017.0
20240614103029 0 44 0.0 0.0 0.00 0.00 0.00 1016.8
20240614102527 0 255 0.0 0.9 0.00 0.00 0.00 1016.8
20240614102026 0 92 0.0 0.9 0.00 0.00 0.00 1016.8
20240614101523 0 269 0.0 0.9 0.00 0.00 0.00 1016.5
20240614101023 0 260 0.0 0.9 0.00 0.00 0.00 1016.6
20240614100523 0 89 0.0 0.9 0.00 0.00 0.00 1016.5
20240614100022 0 46 0.0 0.9 0.00 0.00 0.00 1016.5
20240614095521 0 180 0.0 0.9 0.00 0.00 0.00 1016.3
20240614095020 0 142 0.0 1.7 0.00 0.00 0.00 1016.4
20240614094518 0 269 0.0 1.7 0.00 0.00 0.00 1016.3
20240614094018 0 284 0.0 0.9 0.00 0.00 0.00 1016.5
20240614093516 0 283 0.0 0.9 0.00 0.00 0.00 1016.2
20240614093014 0 321 0.0 0.0 0.00 0.00 0.00 1016.4
20240614092512 0 321 0.0 1.7 0.00 0.00 0.00 1016.3
20240614092011 0 269 0.0 0.9 0.00 0.00 0.00 1016.3
20240614091508 0 117 0.0 0.9 0.00 0.00 0.00 1016.1
20240614091008 0 224 0.0 1.7 0.00 0.00 0.00 1016.0
20240614090507 0 238 0.0 1.7 0.00 0.00 0.00 1016.1
20240614090006 0 286 0.0 0.9 0.00 0.00 0.00 1016.2
20240614085500 0 269 0.0 0.9 0.00 0.00 0.00 1016.3
20240614084958 0 89 0.0 0.9 0.00 0.00 0.00 1015.9
20240614084457 0 65 0.0 1.7 0.00 0.00 0.00 1016.1
20240614083956 0 62 0.0 0.9 0.00 0.00 0.00 1016.0
20240614083455 0 62 0.0 1.7 0.00 0.00 0.00 1015.9
20240614082953 0 322 0.0 0.9 0.00 0.00 0.00 1016.0
20240614082452 0 295 0.0 0.9 0.00 0.00 0.00 1016.1
20240614081950 0 246 0.0 0.9 0.00 0.00 0.00 1016.2
20240614081448 0 242 0.0 0.9 0.00 0.00 0.00 1016.2
20240614080948 0 15 0.0 1.7 0.00 0.00 0.00 1016.1
20240614080446 0 164 0.0 0.9 0.00 0.00 0.00 1016.1
20240614075946 0 269 0.0 0.9 0.00 0.00 0.00 1016.1
20240614075445 0 304 0.0 0.0 0.00 0.00 0.00 1016.0
20240614074945 0 304 0.0 0.9 0.00 0.00 0.00 1016.0
20240614074443 0 304 0.0 0.0 0.00 0.00 0.00 1016.1
20240614073941 0 304 0.0 0.9 0.00 0.00 0.00 1016.1
20240614073441 0 0 0.0 0.0 0.00 0.00 0.00 1016.0
20240614072939 0 0 0.0 0.0 0.00 0.00 0.00 1016.3
20240614072438 0 0 0.0 0.0 0.00 0.00 0.00 1016.2
20240614071937 0 0 0.0 0.0 0.00 0.00 0.00 1016.2
20240614071436 0 0 0.0 0.0 0.00 0.00 0.00 1016.2
20240614070935 0 0 0.0 0.0 0.00 0.00 0.00 1016.2
20240614070432 0 0 0.0 0.0 0.00 0.00 0.00 1016.2
20240614065933 0 0 0.0 0.0 0.00 0.00 0.00 1016.2
20240614065432 0 0 0.0 0.0 0.00 0.00 0.00 1016.2
20240614064929 0 269 0.0 0.0 0.00 0.00 0.00 1016.1
20240614064428 0 269 0.0 0.0 0.00 0.00 0.00 1016.1
20240614063927 0 269 0.0 0.0 0.00 0.00 0.00 1016.2
20240614063427 0 269 0.0 0.0 0.00 0.00 0.00 1016.2
20240614062926 0 269 0.0 0.0 0.00 0.00 0.00 1016.1
20240614062425 0 269 0.0 0.0 0.00 0.00 0.00 1016.2
20240614061925 0 269 0.0 0.0 0.00 0.00 0.00 1016.3
20240614061423 0 269 0.0 0.0 0.00 0.00 0.00 1016.4
20240614060923 0 269 0.0 0.0 0.00 0.00 0.00 1016.4
20240614060421 0 242 0.0 0.0 0.00 0.00 0.00 1016.3
20240614055919 0 242 0.0 0.0 0.00 0.00 0.00 1016.3
20240614055418 0 242 0.0 0.0 0.00 0.00 0.00 1016.5
20240614054917 0 242 0.0 0.0 0.00 0.00 0.00 1016.4
20240614054417 0 242 0.0 0.0 0.00 0.00 0.00 1016.4
20240614053916 0 242 0.0 0.0 0.00 0.00 0.00 1016.5
20240614053414 0 269 0.0 0.0 0.00 0.00 0.00 1016.5
20240614052914 0 309 0.0 0.0 0.00 0.00 0.00 1016.4
20240614052412 0 322 0.0 0.0 0.00 0.00 0.00 1016.3
20240614051911 0 290 0.0 0.0 0.00 0.00 0.00 1016.3
20240614051410 0 290 0.0 0.0 0.00 0.00 0.00 1016.2
20240614050908 0 290 0.0 0.9 0.00 0.00 0.00 1016.4
20240614050408 0 269 0.0 0.9 0.00 0.00 0.00 1016.5
20240614045906 0 322 0.0 0.0 0.00 0.00 0.00 1016.4
20240614045405 0 322 0.0 0.9 0.00 0.00 0.00 1016.5
20240614044903 0 297 0.0 0.0 0.00 0.00 0.00 1016.4
20240614044402 0 297 0.0 0.0 0.00 0.00 0.00 1016.5
20240614043900 0 322 0.0 0.0 0.00 0.00 0.00 1016.2
20240614043359 0 322 0.0 0.0 0.00 0.00 0.00 1016.3
20240614042858 0 322 0.0 0.9 0.00 0.00 0.00 1016.3
20240614042357 0 305 0.0 0.9 0.00 0.00 0.00 1016.4
20240614041856 0 284 0.0 0.0 0.00 0.00 0.00 1016.3
20240614041352 0 284 0.0 0.0 0.00 0.00 0.00 1016.3
20240614040851 0 284 0.0 0.9 0.00 0.00 0.00 1016.2
20240614040350 0 269 0.0 0.0 0.00 0.00 0.00 1016.2
20240614035848 0 269 0.0 0.0 0.00 0.00 0.00 1016.3
20240614035345 0 269 0.0 0.9 0.00 0.00 0.00 1016.3
20240614034845 0 326 0.0 0.9 0.00 0.00 0.00 1016.4
20240614034343 0 322 0.0 0.9 0.00 0.00 0.00 1016.1
20240614033842 0 322 0.0 0.9 0.00 0.00 0.00 1016.0
20240614033341 0 297 0.0 0.0 0.00 0.00 0.00 1015.9
20240614032839 0 297 0.0 0.9 0.00 0.00 0.00 1016.0
20240614032338 0 333 0.0 0.0 0.00 0.00 0.00 1015.8
20240614031837 0 309 0.0 0.0 0.00 0.00 0.00 1015.7
20240614031336 0 309 0.0 0.9 0.00 0.00 0.00 1015.8
20240614030834 0 304 0.0 0.9 0.00 0.00 0.00 1015.6
20240614030332 0 309 0.0 0.9 0.00 0.00 0.00 1015.5
20240614025831 0 333 0.0 0.0 0.00 0.00 0.00 1015.4
20240614025329 0 333 0.0 0.0 0.00 0.00 0.00 1015.3
20240614024828 0 293 0.0 0.0 0.00 0.00 0.00 1015.4
20240614024327 0 293 0.0 0.0 0.00 0.00 0.00 1015.3
20240614023826 0 298 0.0 0.9 0.00 0.00 0.00 1015.2
20240614023325 0 329 0.0 0.0 0.00 0.00 0.00 1015.1
20240614022824 0 284 0.0 0.0 0.00 0.00 0.00 1015.0
20240614022322 0 297 0.0 0.0 0.00 0.00 0.00 1014.9
20240614021822 0 309 0.0 0.0 0.00 0.00 0.00 1014.8
20240614021322 0 309 0.0 0.0 0.00 0.00 0.00 1014.7
20240614020820 0 309 0.0 0.0 0.00 0.00 0.00 1014.9
20240614020318 0 297 0.0 0.0 0.00 0.00 0.00 1014.9
20240614015816 0 315 0.0 0.9 0.00 0.00 0.00 1015.0
20240614015315 0 309 0.0 0.9 0.00 0.00 0.00 1014.8
20240614014814 0 290 0.0 0.9 0.00 0.00 0.00 1014.8
20240614014309 0 180 0.0 0.0 0.00 0.00 0.00 1014.8
20240614013809 0 180 0.0 0.0 0.00 0.00 0.00 1014.7
20240614013308 0 180 0.0 0.0 0.00 0.00 0.00 1014.6
20240614012807 0 180 0.0 1.7 0.00 0.00 0.00 1014.6
20240614012306 0 164 0.0 0.9 0.00 0.00 0.00 1014.8
20240614011803 0 113 0.0 0.0 0.00 0.00 0.00 1014.7
20240614011301 0 113 0.0 1.7 0.00 0.00 0.00 1014.8
20240614010801 0 246 0.0 0.9 0.00 0.00 0.00 1014.5
20240614010300 0 89 0.0 0.9 0.00 0.00 0.00 1014.6
20240614005800 0 147 0.0 0.9 0.00 0.00 0.00 1014.6
20240614005258 0 170 0.0 2.6 0.00 0.00 0.00 1014.5
20240614004757 0 343 0.0 1.7 0.00 0.00 0.00 1014.7
20240614004255 0 178 2.6 4.3 0.00 0.00 0.00 1014.5
20240614003753 0 98 0.0 2.6 0.00 0.00 0.00 1014.7
20240614003253 0 198 1.7 3.5 0.00 0.00 0.00 1014.7
20240614002752 0 118 0.0 4.3 0.00 0.00 0.00 1014.5
20240614002250 0 100 1.7 3.5 0.00 0.00 0.00 1014.6
20240614001749 0 109 1.7 2.6 0.00 0.00 0.00 1014.6
20240614001248 0 213 1.7 2.6 0.00 0.00 0.00 1014.5
20240614000746 0 195 2.6 4.3 0.00 0.00 0.00 1014.5
20240614000245 0 125 0.0 4.3 0.00 0.00 0.00 1014.7
20240613235745 0 232 0.9 3.5 0.00 0.00 0.00 1014.6
20240613235243 0 334 0.0 2.6 0.00 0.00 0.00 1014.8
20240613234743 0 190 1.7 4.3 0.00 0.00 0.00 1014.6
20240613234242 0 157 1.7 3.5 0.00 0.00 0.00 1014.5
20240613233741 0 194 0.9 4.3 0.00 0.00 0.00 1014.6
20240613233239 0 180 1.7 4.3 0.00 0.00 0.00 1014.7
20240613232738 0 217 0.0 1.7 0.00 0.00 0.00 1014.6
20240613232236 0 164 1.7 3.5 0.00 0.00 0.00 1014.8
20240613231735 0 10 1.7 4.3 0.00 0.00 0.00 1014.6
20240613231232 0 169 0.0 2.6 0.00 0.00 0.00 1014.6
20240613230731 0 165 2.6 3.5 0.00 0.00 0.00 1014.8
20240613230230 0 148 0.9 5.2 0.00 0.00 0.00 1014.7
20240613225727 0 287 0.9 4.3 0.00 0.00 0.00 1014.9
20240613225225 0 104 2.6 5.2 0.00 0.00 0.00 1014.9
20240613224719 0 167 0.0 3.5 0.00 0.00 0.00 1014.7
20240613224212 0 211 1.7 2.6 0.00 0.00 0.00 1014.8
20240613223712 0 124 0.0 3.5 0.00 0.00 0.00 1014.8
20240613223211 0 339 0.9 4.3 0.00 0.00 0.00 1014.8
20240613222709 0 272 0.0 5.2 0.00 0.00 0.00 1014.9
20240613222209 0 1 1.7 3.5 0.00 0.00 0.00 1015.1
20240613221709 0 229 0.0 5.2 0.00 0.00 0.00 1015.0
20240613221206 0 195 0.9 5.2 0.00 0.00 0.00 1015.1
20240613220706 0 133 3.5 4.3 0.00 0.00 0.00 1015.0
20240613220204 0 145 1.7 3.5 0.00 0.00 0.00 1015.0
20240613215702 0 66 1.7 3.5 0.00 0.00 0.00 1015.0
20240613215159 0 0 0.0 5.2 0.00 0.00 0.00 1015.1
20240613214659 0 273 0.9 2.6 0.00 0.00 0.00 1015.3
20240613214158 0 304 0.9 2.6 0.00 0.00 0.00 1015.2
20240613213655 0 299 1.7 4.3 0.00 0.00 0.00 1015.2
20240613213155 0 317 0.0 5.2 0.00 0.00 0.00 1015.3
20240613212654 0 1 1.7 3.5 0.00 0.00 0.00 1015.3
20240613212153 0 342 2.6 4.3 0.00 0.00 0.00 1015.4
20240613211652 0 199 0.0 2.6 0.00 0.00 0.00 1015.4
20240613211150 0 134 1.7 5.2 0.00 0.00 0.00 1015.5
20240613210649 0 5 0.9 3.5 0.00 0.00 0.00 1015.6
20240613210149 0 226 2.6 2.6 0.00 0.00 0.00 1015.7
20240613205647 0 89 0.0 2.6 0.00 0.00 0.00 1015.6
20240613205145 0 193 0.9 4.3 0.00 0.00 0.00 1015.6
20240613204642 0 191 0.9 3.5 0.00 0.00 0.00 1015.6
20240613204141 0 173 0.9 4.3 0.00 0.00 0.00 1015.9
20240613203640 0 353 0.0 4.3 0.00 0.00 0.00 1015.7
20240613203140 0 200 1.7 3.5 0.00 0.00 0.00 1015.7
20240613202639 0 186 1.7 3.5 0.00 0.00 0.00 1015.7
20240613202138 0 105 0.9 3.5 0.00 0.00 0.00 1015.8
20240613201636 0 102 2.6 4.3 0.00 0.00 0.00 1015.8
20240613201134 0 140 0.0 6.1 0.00 0.00 0.00 1016.0
20240613200633 0 173 2.6 4.3 0.00 0.00 0.00 1016.1
20240613200132 0 165 3.5 4.3 0.00 0.00 0.00 1016.0
20240613195630 0 281 0.9 1.7 0.00 0.00 0.00 1016.2
20240613195129 0 278 1.7 3.5 0.00 0.00 0.00 1016.2
20240613194627 0 138 2.6 3.5 0.00 0.00 0.00 1016.0
20240613194126 0 82 1.7 3.5 0.00 0.00 0.00 1016.0
20240613193623 0 5 2.6 7.0 0.00 0.00 0.00 1016.2
20240613193122 0 354 1.7 4.3 0.00 0.00 0.00 1016.1
20240613192621 0 342 0.9 5.2 0.00 0.00 0.00 1016.2
20240613192120 0 146 1.7 4.3 0.00 0.00 0.00 1016.4
20240613191618 0 227 0.0 2.6 0.00 0.00 0.00 1016.3
20240613191118 0 192 1.7 3.5 0.00 0.00 0.00 1016.4
20240613190618 0 0 0.0 3.5 0.00 0.00 0.00 1016.2
20240613190117 0 320 0.9 2.6 0.00 0.00 0.00 1016.5
20240613185617 0 217 2.6 6.1 0.00 0.00 0.00 1016.5
20240613185116 0 143 0.9 4.3 0.00 0.00 0.00 1016.5
20240613184615 0 326 0.9 3.5 0.00 0.00 0.00 1016.6
20240613184114 0 235 2.6 3.5 0.00 0.00 0.00 1016.6
20240613183612 0 136 1.7 6.1 0.00 0.00 0.00 1016.8
20240613183111 0 284 1.7 2.6 0.00 0.00 0.00 1016.7
20240613182607 0 336 0.0 3.5 0.00 0.00 0.00 1016.9
20240613182106 0 238 0.9 3.5 0.00 0.00 0.00 1017.0
20240613181603 0 345 0.0 1.7 0.00 0.00 0.00 1016.8
20240613181102 0 229 0.9 2.6 0.00 0.00 0.00 1016.9
20240613180603 0 152 0.0 2.6 0.00 0.00 0.00 1017.1
20240613180100 0 290 1.7 6.1 0.00 0.00 0.00 1017.1
20240613175559 0 253 1.7 4.3 0.00 0.00 0.00 1017.3
20240613175057 0 192 1.7 4.3 0.00 0.00 0.00 1017.3
20240613174557 0 203 0.0 4.3 0.00 0.00 0.00 1017.3
20240613174055 0 209 2.6 4.3 0.00 0.00 0.00 1017.2
20240613173554 0 257 0.9 1.7 0.00 0.00 0.00 1017.3
20240613173053 0 203 1.7 3.5 0.00 0.00 0.00 1017.3
20240613172552 0 160 0.0 3.5 0.00 0.00 0.00 1017.5
20240613172051 0 25 0.9 1.7 0.00 0.00 0.00 1017.4
20240613171549 0 173 0.0 3.5 0.00 0.00 0.00 1017.6
20240613171048 0 135 1.7 4.3 0.00 0.00 0.00 1017.5
20240613170546 0 215 1.7 6.1 0.00 0.00 0.00 1017.5
20240613170046 0 207 0.9 1.7 0.00 0.00 0.00 1017.6
20240613165544 0 37 0.0 2.6 0.00 0.00 0.00 1017.5
20240613165043 0 232 0.9 2.6 0.00 0.00 0.00 1017.5
20240613164542 0 182 1.7 4.3 0.00 0.00 0.00 1017.4
20240613164042 0 246 0.9 2.6 0.00 0.00 0.00 1017.5
20240613163538 0 321 0.0 2.6 0.00 0.00 0.00 1017.4
20240613163038 0 205 0.9 3.5 0.00 0.00 0.00 1017.5
20240613162531 0 268 0.9 3.5 0.00 0.00 0.00 1017.6
20240613162030 0 130 3.5 6.1 0.00 0.00 0.00 1017.3
20240613161529 0 155 2.6 4.3 0.00 0.00 0.00 1017.3
20240613161029 0 141 4.3 5.2 0.00 0.00 0.00 1017.4
20240613160525 0 148 3.5 4.3 0.00 0.00 0.00 1017.6
20240613160023 0 138 2.6 4.3 0.00 0.00 0.00 1017.4
20240613155522 0 317 0.9 2.6 0.00 0.00 0.00 1017.5
20240613155021 0 138 1.7 5.2 0.00 0.00 0.00 1017.6
20240613154519 0 191 1.7 3.5 0.00 0.00 0.00 1017.5
20240613154016 0 70 2.6 6.1 0.00 0.00 0.00 1017.5
20240613153515 0 128 1.7 4.3 0.00 0.00 0.00 1017.5
20240613153014 0 187 3.5 5.2 0.00 0.00 0.00 1017.8
20240613152512 0 221 0.0 2.6 0.00 0.00 0.00 1017.5
20240613152011 0 75 0.9 3.5 0.00 0.00 0.00 1017.8
20240613151508 0 105 0.0 3.5 0.00 0.00 0.00 1017.8
20240613151006 0 173 1.7 4.3 0.00 0.00 0.00 1017.9
20240613150505 0 50 1.7 4.3 0.00 0.00 0.00 1018.0
20240613150005 0 142 0.0 2.6 0.00 0.00 0.00 1018.0
20240613145504 0 154 1.7 6.1 0.00 0.00 0.00 1017.9
20240613145002 0 199 1.7 3.5 0.00 0.00 0.00 1018.0
20240613144500 0 118 0.9 4.3 0.00 0.00 0.00 1017.8
20240613143959 0 97 0.9 4.3 0.00 0.00 0.00 1018.0
20240613143458 0 213 0.9 3.5 0.00 0.00 0.00 1018.1
20240613142958 0 210 1.7 3.5 0.00 0.00 0.00 1018.1
20240613142455 0 341 0.0 2.6 0.00 0.00 0.00 1017.9
20240613141955 0 127 0.0 2.6 0.00 0.00 0.00 1018.1
20240613141453 0 332 0.9 2.6 0.00 0.00 0.00 1017.9
20240613140951 0 157 0.9 2.6 0.00 0.00 0.00 1017.8
20240613140450 0 177 1.7 2.6 0.00 0.00 0.00 1017.8
20240613135950 0 225 1.7 1.7 0.00 0.00 0.00 1017.8
20240613135448 0 154 0.0 1.7 0.00 0.00 0.00 1017.6
20240613134947 0 166 1.7 2.6 0.00 0.00 0.00 1017.5
20240613134442 0 333 0.0 2.6 0.00 0.00 0.00 1017.8
20240613133941 0 119 0.9 1.7 0.00 0.00 0.00 1017.6
20240613133440 0 142 0.0 1.7 0.00 0.00 0.00 1017.5
20240613132939 0 0 0.0 2.6 0.00 0.00 0.00 1017.4
20240613132435 0 343 0.0 1.7 0.00 0.00 0.00 1017.4
20240613131934 0 7 0.0 2.6 0.00 0.00 0.00 1017.4
20240613131431 0 22 0.9 1.7 0.00 0.00 0.00 1017.1
20240613130929 0 164 0.0 1.7 0.00 0.00 0.00 1017.2
20240613130428 0 154 0.0 0.9 0.00 0.00 0.00 1017.2